Location: Byhalia Creek
(34.8270°N, 89.8040°W)
Time: 20:58:09
(UTC+00:00)

Cosmos 1354 Rocket - Pass Details

Date: 22 April 2026
Orbit: 760 x 778 km, 74.0° (Epoch: 21 May)

Event Time Altitude Azimuth Distance (km) Brightness Sun altitude
Rises 09:11:17 0° 338° (NNW) 3,250 7.4 -24.3°
Reaches altitude 10° 09:13:42 10° 334° (NNW) 2,317 6.6 -23.9°
Maximum altitude 09:18:51 58° 256° (WSW) 889 4.0 -23.0°
Enters shadow 09:18:58 58° 250° (WSW) 890 3.9 -23.0°
